レモン-アトラス彗星

C/2022 A3 ( Lemmon-ATLAS )

English version
Home page
Updated on November 26, 2022

---------------------------------------------------------------------

・ プロフィール

発見日 2022年1月10日、3月1日
発見光度 20.3等、19.2等
発見者 Mt. Lemmon Survey, Asteroid Terrestrial-Impact Last Alert System (ATLAS) search program

・ 写真集

・ 軌道要素

Epoch 2022 Aug. 9.0 TT = JDT 2459800.5
T 2023 Sept. 28.83973 TT                                Rudenko
q   3.7031989            (2000.0)            P               Q
z  +0.0010333      Peri.  234.85179     -0.48764497     +0.66436550
 +/-0.0000042      Node   325.48348     +0.60667244     -0.20867723
e   0.9961736      Incl.   88.35569     -0.62781441     -0.71768537
>From 169 observations 2021 Apr. 30-2022 Oct. 28, mean residual 0".4.

・ 星図

・ 光度変化

        m1 = 7.5 + 5 logΔ + 10.0 log r

---------------------------------------------------------------------

軌道要素はM.P.E.C. 2022-V95に掲載されたものです。
星図はステラナビゲータ Ver.10 (アストロアーツ) で作成したものです。
光度グラフはComet for Windowsで作成したものです。

---------------------------------------------------------------------

Copyright(C) Seiichi Yoshida (comet@aerith.net). All rights reserved.